Year,Month,Day,Hour,Minute,Value (Times are PST for temperature in C)
2023,05,05,00,02,12.50
2023,05,05,00,07,12.50
2023,05,05,00,12,12.50
2023,05,05,00,17,12.50
2023,05,05,00,22,12.40
2023,05,05,00,27,12.30
2023,05,05,00,32,12.30
2023,05,05,00,37,12.20
2023,05,05,00,42,12.20
2023,05,05,00,47,12.10
2023,05,05,00,52,12.00
2023,05,05,00,57,12.00
2023,05,05,01,02,12.00
2023,05,05,01,07,12.00
2023,05,05,01,12,11.90
2023,05,05,01,17,11.90
2023,05,05,01,22,11.80
2023,05,05,01,27,11.80
2023,05,05,01,32,11.80
2023,05,05,01,37,11.80
2023,05,05,01,42,11.80
2023,05,05,01,47,11.80
2023,05,05,01,52,11.80
2023,05,05,01,57,11.80
2023,05,05,02,02,11.80
2023,05,05,02,07,11.80
2023,05,05,02,12,11.80
2023,05,05,02,17,11.80
2023,05,05,02,22,11.80
2023,05,05,02,27,11.70
2023,05,05,02,32,11.70
2023,05,05,02,37,11.70
2023,05,05,02,42,11.70
2023,05,05,02,47,11.70
2023,05,05,02,52,11.70
2023,05,05,02,57,11.60
2023,05,05,03,02,11.60
2023,05,05,03,07,11.50
2023,05,05,03,12,11.40
2023,05,05,03,17,11.40
2023,05,05,03,22,11.30
2023,05,05,03,27,11.30
2023,05,05,03,32,11.20
2023,05,05,03,37,11.20
2023,05,05,03,42,11.10
2023,05,05,03,47,11.00
2023,05,05,03,52,11.00
2023,05,05,03,57,10.90
2023,05,05,04,02,10.90
2023,05,05,04,07,10.80
2023,05,05,04,12,10.80
2023,05,05,04,17,10.70
2023,05,05,04,22,10.70
2023,05,05,04,27,10.70
2023,05,05,04,32,10.70
2023,05,05,04,37,10.70
2023,05,05,04,42,10.60
2023,05,05,04,47,10.60
2023,05,05,04,52,10.50
2023,05,05,04,57,10.50
2023,05,05,05,02,10.50
2023,05,05,05,07,10.40
2023,05,05,05,12,10.40
2023,05,05,05,17,10.40
2023,05,05,05,22,10.40
2023,05,05,05,27,10.40
2023,05,05,05,32,10.40
2023,05,05,05,37,10.40
2023,05,05,05,42,10.40
2023,05,05,05,47,10.30
2023,05,05,05,52,10.20
2023,05,05,05,57,10.20
2023,05,05,06,02,10.10
2023,05,05,06,07,10.10
2023,05,05,06,12,10.10
2023,05,05,06,17,10.10
2023,05,05,06,22,10.10
2023,05,05,06,27,10.00
2023,05,05,06,32,10.00
2023,05,05,06,37,10.00
2023,05,05,06,42,10.00
2023,05,05,06,47,10.00
2023,05,05,06,52,10.00
2023,05,05,06,57,10.00
2023,05,05,07,02,10.00
2023,05,05,07,07,10.00
2023,05,05,07,12,10.00
2023,05,05,07,17,10.00
2023,05,05,07,22,10.00
2023,05,05,07,27,10.00
2023,05,05,07,32,10.00
2023,05,05,07,37,10.00
2023,05,05,07,42,10.00
2023,05,05,07,47,10.00
2023,05,05,07,52,10.00
2023,05,05,07,57,10.00
2023,05,05,08,02,10.00
2023,05,05,08,07,10.00
2023,05,05,08,12,10.00
2023,05,05,08,17,10.00
2023,05,05,08,22,10.00
2023,05,05,08,27,10.00
2023,05,05,08,32,10.00
2023,05,05,08,37,10.00
2023,05,05,08,42,10.00
2023,05,05,08,47,10.00
2023,05,05,08,52,10.00
2023,05,05,08,57,10.00
2023,05,05,09,02,10.00
2023,05,05,09,07,10.00
2023,05,05,09,12,10.00
2023,05,05,09,17,10.00
2023,05,05,09,22,10.00
2023,05,05,09,27,10.10
2023,05,05,09,32,10.10
2023,05,05,09,37,10.10
2023,05,05,09,42,10.10
2023,05,05,09,47,10.20
2023,05,05,09,52,10.20
2023,05,05,09,57,10.20
2023,05,05,10,07,10.20
2023,05,05,10,12,10.30
2023,05,05,10,17,10.30
2023,05,05,10,22,10.30
2023,05,05,10,27,10.30
2023,05,05,10,32,10.30
2023,05,05,10,37,10.30
2023,05,05,10,42,10.30
2023,05,05,10,47,10.30
2023,05,05,10,52,10.30
2023,05,05,10,57,10.30
2023,05,05,11,02,10.40
2023,05,05,11,07,10.40
2023,05,05,11,12,10.40
2023,05,05,11,17,10.40
2023,05,05,11,22,10.40
2023,05,05,11,27,10.40
2023,05,05,11,32,10.40
2023,05,05,11,37,10.40
2023,05,05,11,42,10.40
2023,05,05,11,47,10.50
2023,05,05,11,52,10.50
2023,05,05,11,57,10.60
2023,05,05,12,02,10.60
2023,05,05,12,07,10.70
2023,05,05,12,12,10.70
2023,05,05,12,17,10.80
2023,05,05,12,22,10.70
2023,05,05,12,27,10.60
2023,05,05,12,32,10.60
2023,05,05,12,37,10.60
2023,05,05,12,42,10.60
2023,05,05,12,47,10.60
2023,05,05,12,52,10.50
2023,05,05,12,57,10.40
2023,05,05,13,02,10.50
2023,05,05,13,07,10.40
2023,05,05,13,12,10.40
2023,05,05,13,17,10.40
2023,05,05,13,22,10.40
2023,05,05,13,27,10.40
2023,05,05,13,32,10.40
2023,05,05,13,37,10.50
2023,05,05,13,42,10.50
2023,05,05,13,47,10.50
2023,05,05,13,52,10.60
2023,05,05,13,57,10.60
2023,05,05,14,02,10.70
2023,05,05,14,07,10.70
2023,05,05,14,12,10.70
2023,05,05,14,17,10.70
2023,05,05,14,22,10.80
2023,05,05,14,27,10.80
2023,05,05,14,32,10.80
2023,05,05,14,37,10.80
2023,05,05,14,42,10.90
2023,05,05,14,47,10.90
2023,05,05,14,52,10.90
2023,05,05,14,57,10.90
2023,05,05,15,02,10.90
2023,05,05,15,07,10.90
2023,05,05,15,12,10.90
2023,05,05,15,17,10.90
2023,05,05,15,22,10.80
2023,05,05,15,27,10.80
2023,05,05,15,32,10.80
2023,05,05,15,37,10.70
2023,05,05,15,42,10.80
2023,05,05,15,47,10.80
2023,05,05,15,52,10.90
2023,05,05,15,57,10.90
2023,05,05,16,02,10.90
2023,05,05,16,07,11.00
2023,05,05,16,12,10.90
2023,05,05,16,17,11.00
2023,05,05,16,22,11.00
2023,05,05,16,27,11.00
2023,05,05,16,32,11.10
2023,05,05,16,37,11.10
2023,05,05,16,42,11.00
2023,05,05,16,47,11.10
2023,05,05,16,52,11.00
2023,05,05,16,57,11.10
2023,05,05,17,02,11.10
2023,05,05,17,07,11.00
2023,05,05,17,12,11.10
2023,05,05,17,17,11.10
2023,05,05,17,22,11.10
2023,05,05,17,27,11.10
2023,05,05,17,32,11.10
2023,05,05,17,37,11.00
2023,05,05,17,42,11.00
2023,05,05,17,47,11.00
2023,05,05,17,52,11.00
2023,05,05,17,57,11.10
2023,05,05,18,02,11.00
2023,05,05,18,07,11.00
2023,05,05,18,12,11.00
2023,05,05,18,17,10.90
2023,05,05,18,22,10.90
2023,05,05,18,27,10.90
2023,05,05,18,32,10.90
2023,05,05,18,37,10.90
2023,05,05,18,42,10.90
2023,05,05,18,47,10.90
2023,05,05,18,52,10.80
2023,05,05,18,57,10.80
2023,05,05,19,02,10.80
2023,05,05,19,07,10.80
2023,05,05,19,12,10.70
2023,05,05,19,17,10.70
2023,05,05,19,22,10.70
2023,05,05,19,27,10.60
2023,05,05,19,32,10.50
2023,05,05,19,37,10.50
2023,05,05,19,42,10.50
2023,05,05,19,47,10.40
2023,05,05,19,52,10.40
2023,05,05,19,57,10.40
2023,05,05,20,02,10.30
2023,05,05,20,07,10.20
2023,05,05,20,12,10.20
2023,05,05,20,17,10.20
2023,05,05,20,22,10.10
2023,05,05,20,27,10.00
2023,05,05,20,32,10.00
2023,05,05,20,37,9.90
2023,05,05,20,42,9.90
2023,05,05,20,47,9.90
2023,05,05,20,52,9.80
2023,05,05,20,57,9.90
2023,05,05,21,02,9.80
2023,05,05,21,07,9.80
2023,05,05,21,12,9.80
2023,05,05,21,17,9.80
2023,05,05,21,22,9.80
2023,05,05,21,27,9.70
2023,05,05,21,32,9.70
2023,05,05,21,37,9.70
2023,05,05,21,42,9.60
2023,05,05,21,47,9.70
2023,05,05,21,52,9.60
2023,05,05,21,57,9.60
2023,05,05,22,02,9.60
2023,05,05,22,07,9.60
2023,05,05,22,12,9.60
2023,05,05,22,17,9.60
2023,05,05,22,22,9.50
2023,05,05,22,27,9.50
2023,05,05,22,32,9.50
2023,05,05,22,37,9.40
2023,05,05,22,42,9.40
2023,05,05,22,47,9.30
2023,05,05,22,52,9.30
2023,05,05,22,57,9.20
2023,05,05,23,07,9.10
2023,05,05,23,12,9.10
2023,05,05,23,17,9.10
2023,05,05,23,22,9.10
2023,05,05,23,27,9.10
2023,05,05,23,32,9.10
2023,05,05,23,37,9.20
2023,05,05,23,42,9.20
2023,05,05,23,47,9.10
2023,05,05,23,52,9.10
2023,05,05,23,57,9.10
